Weather History for Patuxent River, MD

Change the Weather History Date:

Sunday, January 13, 2013

  Actual Average Record
Temperature  
Mean Temperature 50 °F -  
Max Temperature 59 °F 37 °F 68 °F (2005)
Min Temperature 42 °F 23 °F 7 °F (1981)
Degree Days  
Heating Degree Days 16    
Moisture  
Dew Point 45 °F    
Average Humidity 95    
Maximum Humidity 100    
Minimum Humidity 88    
Precipitation  
Precipitation 0.00 in - - ()
Sea Level Pressure  
Sea Level Pressure 30.09 in    
Wind  
Wind Speed 5 mph (SE)    
Max Wind Speed 12 mph    
Max Gust Speed -    
Visibility 2 miles    
Events Fog    
Averages and records for this station are not official NWS values.
T = Trace of Precipitation, MM = Missing Value Source: NWS Daily Summary

Daily Weather History Graph

Daily Weather History Graph

Search for Another Location

Airport:

Trip Planner

Search our weather history database for the weather conditions in past years. The results will help you decide how hot, cold, wet, or windy it might be!

Date:

Astronomy

Jan. 13, 2013 Rise Set
Actual Time 7:21 AM EST 5:07 PM EST
Civil Twilight 6:52 AM EST 5:36 PM EST
Nautical Twilight 6:20 AM EST 6:09 PM EST
Astronomical Twilight 5:48 AM EST 6:40 PM EST
Moon 8:21 AM EST (1/13) 7:40 PM EST (1/13)
Length of Visible Light 10h 43m
Length of Day
9h 45m
Waxing Crescent, 5% of the Moon is Illuminated
Jan 13
Waxing Crescent
Jan 18
First Quarter
Jan 26
Full
Feb 3
Last Quarter
Feb 10
New

Hourly Weather History & Observations

Time (EST) Temp. Windchill Dew Point Humidity Pressure Visibility Wind Dir Wind Speed Gust Speed Precip Events Conditions
12:18 AM 44.6 °F 43.1 °F 42.8 °F 93% 30.14 in 1.0 mi SW 3.5 mph - N/A   Mist
12:26 AM 42.8 °F 41.1 °F 42.8 °F 100% 30.14 in 0.8 mi WSW 3.5 mph - N/A   Mist
12:41 AM 42.8 °F 40.1 °F 42.8 °F 100% 30.15 in 1.2 mi WSW 4.6 mph - N/A   Overcast
12:49 AM 44.6 °F 40.7 °F 42.8 °F 93% 30.16 in 2.0 mi WSW 6.9 mph - N/A   Overcast
12:52 AM 44.1 °F 40.1 °F 42.1 °F 93% 30.16 in 3.0 mi WSW 6.9 mph - N/A   Overcast
1:24 AM 44.6 °F - 42.8 °F 93% 30.14 in 1.8 mi Calm Calm - N/A   Overcast
1:31 AM 44.6 °F - 42.8 °F 93% 30.14 in 0.8 mi Calm Calm - N/A   Mist
1:42 AM 44.6 °F - 42.8 °F 93% 30.14 in 1.5 mi Calm Calm - N/A   Overcast
1:46 AM 44.6 °F - 42.8 °F 93% 30.13 in 3.0 mi Calm Calm - N/A   Overcast
1:52 AM 44.1 °F 42.5 °F 42.1 °F 93% 30.14 in 2.5 mi ESE 3.5 mph - N/A   Overcast
1:57 AM 44.6 °F 43.1 °F 42.8 °F 93% 30.13 in 1.2 mi ESE 3.5 mph - N/A   Overcast
2:07 AM 44.6 °F - 42.8 °F 93% 30.14 in 0.5 mi Calm Calm - N/A Fog Fog
2:47 AM 43.0 °F - 41.0 °F 93% 30.14 in 1.0 mi Calm Calm - N/A   Mist
2:59 AM 42.8 °F 41.1 °F 42.8 °F 100% 30.14 in 0.8 mi SE 3.5 mph - N/A   Mist
3:13 AM 42.8 °F - 42.8 °F 100% 30.14 in 1.2 mi Calm Calm - N/A   Overcast
3:38 AM 42.8 °F 40.1 °F 41.0 °F 93% 30.12 in 0.8 mi ESE 4.6 mph - N/A   Mist
3:52 AM 43.0 °F 39.5 °F 42.1 °F 97% 30.12 in 0.5 mi ESE 5.8 mph - N/A Fog Fog
3:59 AM 42.8 °F 39.3 °F 42.8 °F 100% 30.12 in 0.2 mi ESE 5.8 mph - N/A Fog Fog
4:27 AM 42.8 °F 38.6 °F 42.8 °F 100% 30.11 in 0.5 mi ESE 6.9 mph - N/A Fog Fog
4:52 AM 43.0 °F 37.7 °F 42.1 °F 97% 30.11 in 0.2 mi SE 9.2 mph - N/A Fog Fog
5:18 AM 42.8 °F 38.6 °F 42.8 °F 100% 30.11 in 0.5 mi SSE 6.9 mph - N/A Fog Fog
5:52 AM 44.1 °F 40.8 °F 43.0 °F 96% 30.11 in 0.8 mi ESE 5.8 mph - N/A   Mist
6:02 AM 44.6 °F 41.4 °F 42.8 °F 93% 30.11 in 1.0 mi SE 5.8 mph - N/A   Overcast
6:16 AM 44.6 °F 41.4 °F 42.8 °F 93% 30.11 in 2.0 mi SE 5.8 mph - N/A   Overcast
6:52 AM 44.1 °F 39.0 °F 42.1 °F 93% 30.11 in 1.5 mi SE 9.2 mph - N/A   Overcast
7:02 AM 44.6 °F 40.2 °F 42.8 °F 93% 30.11 in 0.8 mi SE 8.1 mph - N/A   Mist
7:13 AM 44.6 °F 40.7 °F 42.8 °F 93% 30.11 in 0.2 mi SE 6.9 mph - N/A Fog Fog
7:52 AM 44.1 °F 40.8 °F 43.0 °F 96% 30.12 in 0.2 mi ESE 5.8 mph - N/A Fog Fog
8:52 AM 44.1 °F 39.5 °F 43.0 °F 96% 30.12 in 0.2 mi ESE 8.1 mph - N/A Fog Fog
9:52 AM 45.0 °F 39.3 °F 43.0 °F 93% 30.14 in 0.2 mi ESE 11.5 mph - N/A Fog Fog
10:52 AM 46.0 °F 41.9 °F 45.0 °F 96% 30.12 in 0.2 mi ESE 8.1 mph - N/A Fog Fog
11:52 AM 46.9 °F - 45.0 °F 93% 30.12 in 0.2 mi ESE 4.6 mph - N/A Fog Fog
12:52 PM 46.9 °F - 46.0 °F 97% 30.08 in 0.2 mi ESE 4.6 mph - N/A Fog Fog
1:52 PM 46.9 °F - 45.0 °F 93% 30.06 in 0.2 mi ESE 8.1 mph - N/A Fog Fog
2:33 PM 48.2 °F - 46.4 °F 93% 30.05 in 0.5 mi ESE 6.9 mph - N/A Fog Fog
2:52 PM 48.9 °F - 46.9 °F 93% 30.06 in 0.8 mi SE 5.8 mph - N/A   Mist
3:16 PM 48.2 °F - 46.4 °F 93% 30.05 in 1.0 mi ESE 6.9 mph - N/A   Overcast
3:52 PM 48.0 °F - 46.9 °F 96% 30.05 in 1.5 mi ESE 5.8 mph - N/A   Overcast
3:56 PM 48.2 °F - 46.4 °F 93% 30.05 in 2.0 mi ESE 8.1 mph - N/A   Overcast
4:01 PM 48.2 °F - 46.4 °F 93% 30.05 in 3.0 mi ESE 8.1 mph - N/A   Overcast
4:33 PM 48.2 °F - 46.4 °F 93% 30.05 in 2.5 mi SE 6.9 mph - N/A   Overcast
4:52 PM 48.0 °F - 46.0 °F 93% 30.05 in 2.5 mi ESE 6.9 mph - N/A   Overcast
5:39 PM 48.2 °F - 46.4 °F 93% 30.05 in 1.5 mi ESE 5.8 mph - N/A   Overcast
5:52 PM 48.0 °F - 46.0 °F 93% 30.05 in 1.5 mi ESE 8.1 mph - N/A   Overcast
5:54 PM 48.2 °F - 46.4 °F 93% 30.05 in 0.8 mi ESE 8.1 mph - N/A   Mist
6:52 PM 48.0 °F - 46.9 °F 96% 30.04 in 0.8 mi East 4.6 mph - N/A   Mist
7:30 PM 48.2 °F - 48.2 °F 100% 30.03 in 1.2 mi East 3.5 mph - N/A   Overcast
7:52 PM 50.0 °F - 48.9 °F 96% 30.03 in 1.0 mi East 3.5 mph - N/A   Mist
7:59 PM 50.0 °F - 48.2 °F 94% 30.03 in 0.8 mi East 3.5 mph - N/A   Mist
8:13 PM 48.2 °F - 48.2 °F 100% 30.03 in 0.5 mi East 5.8 mph - N/A Fog Fog
8:52 PM 48.0 °F - 46.9 °F 96% 30.02 in 0.5 mi East 4.6 mph - N/A Fog Fog
9:02 PM 48.2 °F - 46.4 °F 93% 30.01 in 0.2 mi East 4.6 mph - N/A Fog Fog
9:31 PM 46.4 °F - 46.4 °F 100% 30.01 in 0.5 mi Calm Calm - N/A Fog Fog
9:43 PM 51.8 °F - 48.2 °F 88% 30.01 in 1.0 mi South 5.8 mph - N/A   Mist
9:47 PM 57.2 °F - 53.6 °F 88% 30.01 in 2.0 mi SSW 6.9 mph - N/A   Mostly Cloudy
9:52 PM 57.0 °F - 55.0 °F 93% 30.01 in 8.0 mi South 6.9 mph - N/A   Scattered Clouds
10:52 PM 57.9 °F - 55.9 °F 93% 30.01 in 9.0 mi South 6.9 mph - N/A   Clear
11:52 PM 59.0 °F - 55.9 °F 90% 30.01 in 9.0 mi South 6.9 mph - N/A   Clear